Regional Weather Roundup
Issued by NWS

Home | Current Version | Previous Version | Text Only | Print | Product List | Glossary Off
Versions: 1 2 3 4 5 6 7 8 9 10 11 12 13 14 15 16 17 18 19 20 21 22 23 24 25 26 27 28 29 30 31 32 33 34 35 36 37 38 39 40 41 42 43 44 45 46 47 48 49 50

106
ASUS43 KLSX 220357
RWRMO

WEATHER SUMMARY FOR MISSOURI
NATIONAL WEATHER SERVICE SPRINGFIELD MO
1100 PM CDT SAT APR 21 2018

NOTE: "FAIR" INDICATES FEW OR NO CLOUDS BELOW 12,000 FEET WITH NO
       SIGNIFICANT WEATHER AND/OR OBSTRUCTIONS TO VISIBILITY.
       CURRENT SKY AND/OR WEATHER CONDITIONS ARE NOT AVAILABLE FOR
       CHILLICOTHE AND FARMINGTON.

MOZ001>031-035>038-043-044-053-054-220500-
...NORTHERN AND WESTERN MISSOURI...

CITY           SKY/WX    TMP DP  RH WIND       PRES   REMARKS
KANSAS CTY INT CLOUDY    55  29  36 NE10      30.16S
LEE`S SUMMIT   CLOUDY    57  29  34 NE10      30.15S
ST JOSEPH      CLOUDY    56  31  38 NE12      30.20R
CHILLICOTHE      N/A     56  29  35 E6        30.20R

$$
MOZ066>068-077>081-088>096-101>105-220500-
...SOUTHWEST MISSOURI...

CITY           SKY/WX    TMP DP  RH WIND       PRES   REMARKS
SPRINGFIELD    CLOUDY    57  47  69 E7        30.07F
JOPLIN         LGT RAIN  52  52 100 NE5       30.07F

$$
MOZ032>034-039>042-045>050-055>058-069>072-220500-
...CENTRAL MISSOURI...

CITY           SKY/WX    TMP DP  RH WIND       PRES   REMARKS
COLUMBIA       NOT AVBL
JEFFERSON CITY CLOUDY    61  32  33 E9        30.14F
ROLLA          CLOUDY    59  34  39 E12       30.14F
SEDALIA        CLOUDY    59  33  37 E10       30.15S
WARRENSBURG    CLOUDY    55  30  38 NE9       30.13F

$$
MOZ051-052-059>065-220500-
...EAST CENTRAL MISSOURI...

CITY           SKY/WX    TMP DP  RH WIND       PRES   REMARKS
ST LOUIS INTL  CLOUDY    59  32  36 NE12      30.20F

$$
MOZ072>076-082>087-097>100-106>115-220500-
...SOUTH CENTRAL AND SOUTHEAST MISSOURI...

CITY           SKY/WX    TMP DP  RH WIND       PRES   REMARKS
CAPE GIRARDEAU FAIR      65  35  33 E10       30.13S
POPLAR BLUFF   FAIR      63  43  48 E8        30.10F
WEST PLAINS    CLOUDY    61  34  36 E8        30.09F

$$




USA.gov is the U.S. government's official web portal to all federal, state and local government web resources and services.